This is the latest recevied weather packets stored in our database for station/object WD9EKA. If no packets are shown the sender has not sent any weather packets the latest 10 day(s).
| Time | Temp. | Humidity | Pressure | Rain* | Wind** | Luminosity | Snow |
|---|---|---|---|---|---|---|---|
| 1777582833 | 16.67° C | 51% | 1011 hPa | 0 mm | - | - | - |
| 1777582473 | 16.11° C | 49% | 1011.1 hPa | 0 mm | - | - | - |
| 1777582113 | 16.11° C | 44% | 1011.1 hPa | 0 mm | - | - | - |
| 1777581753 | 15.56° C | 51% | 1011.3 hPa | 0 mm | - | - | - |
| 1777581393 | 16.11° C | 46% | 1011.3 hPa | 0 mm | - | - | - |
| 1777581033 | 16.11° C | 50% | 1011.3 hPa | 0 mm | - | - | - |
| 1777580673 | 17.22° C | 48% | 1011.3 hPa | 0 mm | - | - | - |
| 1777580313 | 17.22° C | 47% | 1011.6 hPa | 0 mm | - | - | - |
| 1777579954 | 17.22° C | 50% | 1011.5 hPa | 0 mm | - | - | - |
| 1777579594 | 16.67° C | 43% | 1011.7 hPa | 0 mm | - | - | - |
| 1777579233 | 17.22° C | 46% | 1011.6 hPa | 0 mm | - | - | - |
| 1777578874 | 16.67° C | 50% | 1011.9 hPa | 0 mm | - | - | - |
| 1777578513 | 16.67° C | 49% | 1011.9 hPa | 0 mm | - | - | - |
| 1777578153 | 16.11° C | 44% | 1011.9 hPa | 0 mm | - | - | - |
| 1777577793 | 16.67° C | 51% | 1011.9 hPa | 0 mm | - | - | - |
| 1777577433 | 16.11° C | 49% | 1012 hPa | 0 mm | - | - | - |
| 1777577073 | 15° C | 49% | 1012.1 hPa | 0 mm | - | - | - |
| 1777576713 | 15° C | 46% | 1012.2 hPa | 0 mm | - | - | - |
| 1777576353 | 16.11° C | 51% | 1012.3 hPa | 0 mm | - | - | - |
| 1777575993 | 16.11° C | 45% | 1012.4 hPa | 0 mm | - | - | - |
| 1777575679 | 15.56° C | 48% | 1012.4 hPa | 0 mm | - | - | - |
| 1777575359 | 15.56° C | 43% | 1012.3 hPa | 0 mm | - | - | - |
| 1777575039 | 16.67° C | 47% | 1012.4 hPa | 0 mm | - | - | - |
| 1777574733 | 16.67° C | 41% | 1012.6 hPa | 0 mm | - | - | - |
| 1777574415 | 16.11° C | 51% | 1012.5 hPa | 0 mm | - | - | - |
* Rain latest hour (hover to see other rain measurements)
** Current wind speed in m/s (hover to see current wind gust speed)